Content
SEND FEEDBACK

Daily
Averages
Monthly
Summary
United States of America

ROCKFORD, ILLINOIS


Home > North America > United States > Illinois
Elevation: 724 feet     Latitude: 42 12N     Longitude: 089 06W

WEATHER
 
SELECT A DAY
Number of Records: 199,586;   Date Range: 1/1/95 - 9/3/14
 
SHARE

PRINT THIS DATA

[ ← Previous Day ]
WEATHER ALMANAC - JANUARY 3, 2013
[ Next Day → ]
[ °C ]   °F
Weather ElementAverageHighLow
Temperature23.5 °F28 °F (7:54 am)12.9 °F (11:54 pm)
Dewpoint17.8 °F24.8 °F (6:38 am)7 °F (11:54 pm)
Humidity78.8 %93 % (6:38 am)69 % (8:42 am)
Barometer30.22 in30.32 in (6:54 pm)30.12 in (1:54 am)
Wind Speed9.7 mph16.1 mph (8:27 am)
Wind Gust18.4 mph (8:54 am)
Weather ElementAverage
Visibility9.2 mi
Wind DirectionW (272.9 °)

Weather ElementTotal
Precipitation---
Heating Degree Days44.6 (Base 65)
Averaged from 31 records on January 3, 2013
WEATHER CONDITIONS BREAKOUT
WIND DIRECTION BREAKOUT
WEATHER BY HOUR - JANUARY 3, 2013
[ °C ]   °F
Local TimeTemperatureDewpointHumidityBarometerVisibilityWind DirectionWind SpeedGust SpeedPrecipitationEventsConditions
1:54 AM25.0 °F19.9 °F81 %30.12 in8.0 miWest (260°)11.5 mph0.00 inSnowLight Snow
2:54 AM26.1 °F21.0 °F81 %30.13 in6.0 miWest (260°)8.1 mph0.00 inSnowLight Snow
3:54 AM26.1 °F21.9 °F84 %30.12 in6.0 miWest (260°)10.4 mph0.00 inSnowLight Snow
4:54 AM27.0 °F23.0 °F85 %30.13 in7.0 miWest (270°)9.2 mph0.00 inOvercast
5:54 AM27.0 °F23.0 °F85 %30.14 in7.0 miWest (270°)9.2 mphOvercast
6:38 AM26.6 °F24.8 °F93 %30.12 in8.0 miWest (280°)11.5 mphOvercast
6:54 AM27.0 °F23.0 °F85 %30.16 in8.0 miWest (280°)10.4 mphOvercast
7:54 AM28.0 °F24.1 °F85 %30.18 in8.0 miWest (280°)9.2 mphOvercast
8:27 AM26.6 °F19.4 °F74 %30.16 in10.0 miWest (280°)16.1 mphOvercast
8:42 AM26.6 °F17.6 °F69 %30.16 in10.0 miWest (270°)10.4 mphOvercast
8:54 AM25.0 °F18.0 °F75 %30.20 in10.0 miWest (280°)11.5 mph18.4 mphOvercast
9:38 AM24.8 °F17.6 °F74 %30.19 in10.0 miWNW (290°)10.4 mph0.00 inSnowLight Snow
9:54 AM25.0 °F17.1 °F72 %30.23 in10.0 miWNW (290°)10.4 mph0.00 inSnowLight Snow
10:30 AM24.8 °F17.6 °F74 %30.20 in10.0 miWNW (290°)9.2 mph0.00 inSnowLight Snow
10:54 AM24.1 °F19.0 °F81 %30.23 in9.0 miWest (280°)11.5 mph0.00 inSnowLight Snow
11:20 AM24.8 °F19.4 °F80 %30.20 in9.0 miWNW (290°)10.4 mph0.00 inSnowLight Snow
11:54 AM25.0 °F19.9 °F81 %30.23 in9.0 miWNW (290°)9.2 mph0.00 inSnowLight Snow
12:54 PM25.0 °F19.0 °F78 %30.23 in10.0 miWest (280°)10.4 mph0.00 inSnowLight Snow
1:13 PM24.8 °F19.4 °F80 %30.20 in10.0 miWNW (290°)9.2 mph0.00 inSnowLight Snow
1:50 PM24.8 °F17.6 °F74 %30.21 in10.0 miWest (270°)8.1 mph0.00 inSnowLight Snow
1:54 PM25.0 °F18.0 °F75 %30.24 in10.0 miWest (270°)8.1 mph0.00 inSnowLight Snow
2:54 PM24.1 °F17.1 °F75 %30.26 in10.0 miWest (270°)10.4 mph0.00 inOvercast
3:54 PM24.1 °F16.0 °F71 %30.28 in10.0 miWest (260°)9.2 mphOvercast
4:54 PM23.0 °F16.0 °F74 %30.30 in10.0 miWest (270°)10.4 mphMostly Cloudy
5:54 PM21.0 °F15.1 °F78 %30.31 in10.0 miWest (270°)8.1 mphScattered Clouds
6:54 PM19.0 °F14.0 °F81 %30.32 in10.0 miWest (280°)8.1 mphPartly Cloudy
7:54 PM18.0 °F12.9 °F81 %30.32 in10.0 miWest (260°)8.1 mphClear
8:54 PM17.1 °F12.0 °F81 %30.32 in10.0 miWSW (240°)8.1 mphClear
9:54 PM16.0 °F10.9 °F81 %30.31 in10.0 miSW (230°)5.8 mphClear
10:54 PM15.1 °F9.0 °F77 %30.32 in10.0 miWest (280°)9.2 mphClear
11:54 PM12.9 °F7.0 °F77 %30.30 in10.0 miWest (270°)8.1 mphClear
Hourly data recorded from KRFD, located miles away from Rockford, Illinois







STORIES FROM OUR PARTNERS